User: anonymous   Login
Location: Pella
(41.4080°N, 92.9160°W)
Time: 14:33:47
(UTC-05:00)
Language:

Iridium 91 - Orbit

View from above orbital plane
View from above orbital plane
View from above satellite
View from above satellite

Ground track
Ground track

The orbit data is extracted from the following two-line orbital elements,

1 27372U 02005A   17235.21461726  .00000021  00000-0  42958-6 0  9992
2 27372  86.3930 259.1375 0002185 104.5071 307.4993 14.34221460821236
Epoch (UTC): 23 August 2017 05:09:02
Eccentricity: 0.0002185
inclination: 86.3930°
perigee height: 776 km
apogee height: 779 km
right ascension of ascending node: 259.1375°
argument of perigee: 104.5071°
revolutions per day: 14.34221460
mean anomaly at epoch: 307.4993°
orbit number at epoch: 82123

The dashed part of the orbit path shows where the satellite is in the earth's shadow,  

DLR